Flag for Czech Republic Weather past 2 weeks in Brno, Czech Republic

Now
27 °F

Fog.


Feels Like: 27 °F
Forecast: 13 / 33 °F
Wind: 1 mph from Southeast

Location: Brno / Turany

Current Time: Feb 1, 2015 at 11:13:25 AM

Latest Report: Feb 1, 2015 at 10:00 AM


Visibility: 4 mi

Pressure: 29.32 "Hg

Humidity: 85%

Dew point: 23 °F

Location of BrnoLocation

Historic Weather in Brno — Graph

°F

Brno temperature yesterday

Maximum temperature yesterday: 36 °F (at 2:00 PM)
Minimum temperature yesterday: 23 °F (at 8:00 AM)
Average temperature yesterday: 30 °F

Past Weeks' High & Low Weather Summary

 TemperatureHumidityPressure
High44 °F (Jan 23, 1:00 PM)97% (Jan 29, 8:00 AM)30.33 "Hg (Jan 29, 8:00 AM)
Low21 °F (Feb 1, 8:00 AM)54% (Jan 26, 3:00 PM)28.82 "Hg (Jan 30, 3:00 PM)
Average34 °F83%29.84 "Hg
* Reported Jan 17 9:00 AM — Feb 1 9:00 AM, Brno, Weather by CustomWeather, © 2014

Note: Actual official high and low records may vary slightly from our data, if they occured in-between our weather recording intervals... More about our weather records

Advertising

Brno weather history for previous 24 hours

 ConditionsComfort  
Time TempWeatherWind HumidityBarometerVisibility
9:00 AM
Feb 1
24 °FFog.1 mph87%29.32 "Hg4 mi
8:00 AM21 °FPartly sunny.1 mph90%29.32 "Hg6 mi
7:00 AM23 °FPassing clouds.2 mph90%29.29 "Hg7 mi
6:00 AM24 °FPassing clouds.3 mph88%29.29 "Hg16 mi
5:00 AM23 °FPassing clouds.1 mph90%29.29 "Hg16 mi
4:00 AM25 °FPassing clouds.3 mph88%29.26 "Hg19 mi
3:00 AM25 °FPassing clouds.2 mph87%29.26 "Hg22 mi
2:00 AM26 °FPassing clouds.3 mph86%29.26 "Hg25 mi
1:00 AM27 °FPassing clouds.2 mph85%29.26 "Hg25 mi
12:00 AM27 °FPassing clouds.3 mph83%29.23 "Hg25 mi
11:00 PM
Jan 31
25 °FPassing clouds.3 mph77%29.23 "Hg28 mi
10:00 PM30 °FPassing clouds.2 mph82%29.23 "Hg31 mi
9:00 PM31 °FPassing clouds.1 mph78%29.21 "Hg31 mi
8:00 PM30 °FPassing clouds.1 mph79%29.21 "Hg31 mi
7:00 PM33 °FPassing clouds.2 mph73%29.18 "Hg31 mi
6:00 PM35 °FOvercast.5 mph74%29.18 "Hg25 mi
5:00 PM36 °FOvercast.6 mph75%29.15 "Hg25 mi
4:00 PM35 °FOvercast.5 mph76%29.12 "Hg25 mi
3:00 PM35 °FLight snow. Overcast.5 mph69%29.12 "Hg12 mi
2:00 PM36 °FPartly sunny.5 mph66%29.09 "Hg19 mi
1:00 PM34 °FOvercast.3 mph70%29.09 "Hg25 mi
12:00 PM34 °FOvercast.3 mph68%29.09 "Hg19 mi
11:00 AM34 °FScattered clouds.2 mph56%29.09 "Hg22 mi
Weather by CustomWeather, © 2014

See weather overviewHow to use our weather pages